Location: Grand N�rat
(46.1700°N, 1.5819°E)
Time: 12:48:48
(UTC+00:00)

Daily predictions for brighter satellites

Satellite Brightness Start Highest point End
(mag) Time Altitude Azimuth Time Altitude Azimuth Time Altitude Azimuth
Cosmos 1833 Rocket 3.3 17:19:45 10° NNW 17:24:53 35° NE 17:29:59 10° ESE
Lacrosse 5 4.1 17:22:41 10° WNW 17:27:02 29° SW 17:31:22 10° S
H-2A R/B 3.1 17:24:29 10° ESE 17:28:25 23° ENE 17:32:27 10° N
NOSS 2-1 (D) 2.8 17:25:36 10° SSW 17:28:56 75° SE 17:32:21 10° NE
Meteor 1-21 Rocket 4.2 17:23:32 10° S 17:28:59 64° E 17:34:32 10° NNE
Cosmos 1939 Rocket 3.0 17:26:25 10° SSE 17:30:22 51° ENE 17:34:18 10° N
Cosmos 2344 4.4 17:22:05 10° NW 17:31:00 59° NE 17:43:17 10° ESE
H-2A R/B 2.1 17:27:10 10° NNE 17:31:35 83° ESE 17:35:51 10° SSW
USA 229 DEB 3.9 17:25:32 10° NW 17:32:45 65° NE 17:40:22 10° SE
USA 229 4.0 17:25:38 10° NW 17:32:52 64° NE 17:40:29 10° SE
Cosmos 44 3.5 17:28:04 10° SW 17:32:53 80° NW 17:38:04 10° NE
Cosmos 1602 Rocket 3.9 17:29:06 10° SSE 17:33:14 44° E 17:37:25 10° NNE
CZ-3B R/B 2.1 17:31:39 10° NW 17:34:03 47° NE 17:40:14 10° ESE
Cosmos 2026 Rocket 4.4 17:28:54 10° SSE 17:34:32 40° E 17:40:17 10° NNE
SeaSat 1 3.8 17:30:50 10° NNE 17:35:22 38° NW 17:39:53 10° WSW
Feng Yun 1-1 Rocket 4.4 17:30:28 10° SE 17:35:47 53° ENE 17:41:16 10° N
SJ 16-02 2.2 17:31:53 10° SW 17:36:10 51° WNW 17:40:28 10° N
Cosmos 2112 Rocket 4.0 17:32:35 10° NNW 17:37:50 81° ENE 17:43:02 10° SSE
FengYun 1-2 T 4.4 17:32:57 10° SSE 17:38:33 84° WSW 17:44:14 10° NNW
Cosmos 990 Rocket 4.0 17:34:24 10° SSW 17:39:35 78° ESE 17:44:47 10° NNE
YAOGAN 1 3.6 17:36:22 10° ESE 17:39:52 25° ENE 17:43:22 10° N
Cosmos 1844 Rocket 3.5 17:35:50 10° SW 17:41:20 51° WNW 17:46:51 10° NNE
H-2A R/B 3.7 17:37:45 10° S 17:41:46 48° W 17:45:58 10° NNW
Cosmos 1689 Rocket 3.9 17:41:34 12° E 17:41:58 12° E 17:43:17 10° ESE
Aureole 3 Rocket 3.2 17:40:03 10° N 17:43:04 33° ENE 17:46:44 10° SE
COSMOS 2406 3.4 17:38:44 10° NNW 17:44:24 54° ENE 17:50:02 10° SE
Cosmos 2082 Rocket 3.0 17:39:38 10° N 17:44:36 29° NE 17:49:32 10° ESE
Cosmos 1844 4.3 17:39:45 10° SW 17:45:20 58° WNW 17:51:03 10° NNE
Cosmos 1703 3.1 17:43:22 10° S 17:47:13 73° E 17:51:06 10° NNE
NOSS 3-1 (A) 4.1 17:41:02 10° NW 17:48:27 70° NE 17:57:05 10° SE
X-37B 0.9 17:45:32 10° W 17:48:41 63° S 17:51:36 12° ESE
IRS-1C Rocket 4.3 17:44:15 10° SE 17:49:17 50° ENE 17:54:22 10° N
ISS -2.6 17:48:27 10° WNW 17:51:32 31° N 17:53:50 15° NE
Cosmos 1812 Rocket 3.5 17:47:57 10° N 17:52:19 67° E 17:56:38 10° SSE
Okean O Rocket 2.6 17:50:49 10° S 17:55:08 52° W 17:59:28 10° NNW
ATLAS 5 CENTAUR R/B 4.1 17:54:55 10° NW 17:56:52 12° NNW 17:58:54 10° NNE
CZ-4 R/B 1.7 17:55:37 10° SE 17:59:24 40° ENE 18:03:08 10° N
Iridium 4 Rocket 3.5 17:55:24 10° N 18:00:42 55° E 18:05:30 10° SSE
Cosmos 2195 Rocket 4.5 17:55:46 10° S 18:02:04 75° E 18:08:24 10° NNE
ERS-2 2.7 17:59:02 10° NNE 18:02:25 36° E 18:05:47 10° SSE
SKYMED 2 3.5 17:58:06 10° NNE 18:02:28 72° ESE 18:06:48 10° S
CSL-04 Rocket 4.4 17:59:11 10° SE 18:03:57 32° ENE 18:08:47 10° N
Okean-O 2.9 18:02:40 10° SE 18:06:53 46° ENE 18:11:09 10° N
CZ-4C R/B 4.3 18:03:23 10° NW 18:07:20 17° N 18:11:43 10° NE
S3M 4.5 18:03:07 10° N 18:08:38 34° ENE 18:14:09 10° SE
Cosmos 1428 Rocket 4.5 18:03:48 10° S 18:10:04 72° E 18:16:22 10° NNE
Cosmos 1340 2.8 18:07:00 10° SSW 18:10:45 73° WNW 18:14:31 10° N
USA 234 4.2 18:05:52 14° NE 18:10:49 35° N 18:16:35 10° WNW
Cosmos 1346 Rocket 3.1 18:07:33 10° SSE 18:11:17 43° E 18:15:02 10° NNE
Cosmos 2278 Rocket 2.3 18:05:56 10° S 18:11:29 59° ESE 18:17:04 10° NNE
Cosmos 1953 Rocket 4.2 18:10:57 10° SSE 18:14:48 32° E 18:17:58 14° NNE
CZ-2C R/B 3.3 18:09:53 10° SSE 18:15:23 89° W 18:21:10 10° NNW
Cosmos 2292 Rocket 4.2 18:15:17 10° SSE 18:19:31 31° E 18:20:40 26° ENE
SAR-Lupe-4 3.8 18:17:50 17° NNE 18:20:23 47° E 18:23:50 10° S
Cosmos 44 Rocket 4.1 18:17:20 10° S 18:21:40 32° ESE 18:23:19 26° E
Cosmos 405 3.2 18:19:00 10° NNW 18:22:32 71° W 18:26:01 10° S
NOSS 2-1 (E) 4.3 18:21:10 10° WSW 18:24:14 34° NW 18:26:47 15° NNE
ARGOS 3.2 18:23:47 10° SE 18:28:59 53° ENE 18:34:12 10° N
TELKOM 3 3.8 18:26:56 10° WNW 18:28:35 38° NNW 18:28:35 38° NNW
Cosmos 1869 3.9 18:27:09 10° N 18:30:11 33° NE 18:30:11 33° NE
Meteor 2-19 Rocket 4.4 18:24:46 10° S 18:30:55 81° E 18:37:06 10° N
PSLV R/B 3.8 18:29:31 10° NNE 18:33:46 77° ESE 18:37:58 10° S
Cosmos 372 Rocket 3.9 18:29:58 10° SSW 18:35:09 77° ESE 18:39:58 13° NNE
SAR-Lupe-1 3.9 18:34:04 20° NNE 18:36:28 76° ESE 18:40:02 10° S
CZ-4B R/B 3.1 18:34:18 10° N 18:37:19 33° WNW 18:40:13 10° SW
CZ-2C R/B 3.1 18:33:45 11° NNE 18:38:49 39° E 18:44:02 10° SSE
Cosmos 494 Rocket 4.4 18:36:57 10° N 18:41:47 39° ENE 18:42:30 37° E
Cosmos 2150 Rocket 4.2 18:39:31 10° S 18:44:26 47° ESE 18:45:58 36° ENE
MOS 1 Rocket 3.9 18:41:04 10° N 18:45:13 50° WNW 18:49:25 10° SSW
Cosmos 1048 Rocket 3.9 18:41:48 10° NNW 18:46:53 59° ENE 18:49:36 27° SE
Cosmos-2242 3.5 18:42:57 10° NNW 18:47:11 61° W 18:51:27 10° S
COSMO-SKYMED 1 4.0 18:46:25 10° N 18:50:25 37° WNW 18:54:25 10° SW
Cosmos 2297 4.4 18:47:11 10° SSE 18:51:23 32° ESE 18:51:23 32° ESE
USA 290 4.2 18:52:43 10° NW 18:55:34 30° WSW 18:58:23 10° SSW
SL-08 RB Rocket 3.5 18:59:18 44° SE 19:00:39 70° ENE 19:05:08 10° N
CSL-04 Debris 4.1 18:57:25 10° SSE 19:02:48 84° WSW 19:08:14 10° NNW
Helios 1A Rocket 3.5 19:01:38 10° S 19:05:42 58° WSW 19:09:49 10° NNW
Cosmos 2221 4.5 19:02:33 10° N 19:03:42 17° N 19:03:42 17° N
H-2A R/B 2.8 19:02:32 10° S 19:07:28 53° W 19:12:34 10° NNW
Cosmos 1833 Rocket 3.9 19:03:38 10° NW 19:08:53 42° WSW 19:14:07 10° S
Cosmos 1125 Rocket 3.5 19:03:58 10° S 19:08:41 56° SE 19:08:41 56° SE
Cosmos 1809 Rocket 4.3 19:03:30 10° S 19:09:36 74° E 19:15:46 10° NNE
Cosmos 2298 Rocket 3.9 19:06:23 10° SSW 19:11:42 87° ESE 19:13:35 42° NNE
Cosmos 1689 Rocket 4.2 19:13:24 26° W 19:13:24 26° W 19:15:31 10° SW
Cosmos 2266 Rocket 3.8 19:07:34 10° S 19:13:46 72° E 19:19:54 10° NNE
YAOGAN 1 4.1 19:11:48 10° SSW 19:15:47 36° W 19:19:48 10° NNW
NOSS 2-2 (C) 4.4 19:14:11 10° NNW 19:19:30 62° NE 19:20:07 59° ENE
In-Cosmos 22 Rocket 4.2 19:17:42 10° SSW 19:23:30 83° WNW 19:29:13 10° N
X-37B 3.2 19:22:23 10° W 19:23:55 19° WSW 19:23:55 19° WSW
Cosmos 1943 Rocket 4.2 19:22:24 10° S 19:23:18 15° S 19:23:18 15° S
ISS -1.2 19:25:35 10° WNW 19:26:49 20° NW 19:26:49 20° NW
Cosmos 2082 Rocket 2.9 19:23:26 10° NW 19:28:59 53° WSW 19:33:42 14° S
Cosmos 1241 Rocket 4.5 19:25:01 10° SW 19:31:30 86° WNW 19:33:15 53° NNE
CZ-4 R/B 4.2 19:31:47 10° SW 19:34:35 18° W 19:37:22 10° NW
MetOp-A 4.4 19:37:46 57° N 19:37:46 57° N 19:42:01 10° NNW
Meteor 2-21 4.4 19:33:19 10° SSW 19:39:23 79° W 19:45:35 10° N
NOSS 2-2 (E) 4.5 19:37:07 10° NW 19:42:46 86° SW 19:43:31 73° SSE
ATLAS 5 CENTAUR R/B 4.3 19:41:31 10° NNW 19:42:29 12° N 19:42:29 12° N
Cosmos 2315 Rocket 3.9 19:40:16 10° N 19:46:32 87° W 19:46:33 87° WSW
ATLAS 2AS CENTAUR R/B 4.2 19:42:18 10° NW 19:48:20 24° NNE 19:48:20 24° NNE
USA 234 3.9 19:53:13 42° N 19:53:13 42° N 19:59:00 10° NW
Cosmos 2278 Rocket 4.0 19:51:11 10° WSW 19:55:57 27° NW 19:59:05 17° N
CZ-4C R/B 4.1 19:52:43 10° NNW 19:56:58 25° N 19:56:58 25° N
CZ-2C R/B 4.2 20:15:10 16° N 20:18:59 34° WNW 20:24:00 10° SW
ATLAS 5 CENTAUR R/B 4.4 20:21:34 10° SSW 20:39:15 56° SSW 20:39:15 56° SSW
